Flag for U.S.A. Weather past 2 weeks in Eau Claire, Wisconsin, U.S.A.

Now
46 °F

Clear.


Feels Like: 44 °F
Forecast: 33 / 64 °F
Wind: 5 mph from Northeast

Location: Eau Claire County Airport

Current Time: Apr 26, 2015 at 11:34:32 PM

Latest Report: Apr 26, 2015 at 10:56 PM


Visibility: 10 mi

Pressure: 30.14 "Hg

Humidity: 44%

Dew point: 25 °F

Location of Eau ClaireLocation

Historic Weather in Eau Claire — Graph

°F

Eau Claire temperature yesterday

Maximum temperature yesterday: 61 °F (at 3:56 PM)
Minimum temperature yesterday: 40 °F (at 5:56 AM)
Average temperature yesterday: 49 °F

Past Weeks' High & Low Weather Summary

 TemperatureHumidityPressure
High76 °F (Apr 17, 2:56 PM)93% (Apr 19, 6:56 PM)30.29 "Hg (Apr 19, 6:56 PM)
Low26 °F (Apr 24, 4:56 AM)14% (Apr 14, 11:56 AM)29.39 "Hg (Apr 20, 6:56 AM)
Average50 °F48%29.92 "Hg
* Reported Apr 11 9:56 PM — Apr 26 9:56 PM, Eau Claire, Weather by CustomWeather, © 2015

Note: Actual official high and low records may vary slightly from our data, if they occured in-between our weather recording intervals... More about our weather records

Advertising

Eau Claire weather history for previous 24 hours

 ConditionsComfort  
Time TempWeatherWind HumidityBarometerVisibility
9:56 PM
Sun, Apr 26
49 °FClear.8 mph39%30.13 "Hg10 mi
8:56 PM53 °FSunny.12 mph31%30.11 "Hg10 mi
7:56 PM57 °FSunny.8 mph23%30.09 "Hg10 mi
6:56 PM61 °FSunny.9 mph20%30.07 "Hg10 mi
5:56 PM63 °FSunny.10 mph20%30.07 "Hg10 mi
4:56 PM62 °FSunny.10 mph20%30.07 "Hg10 mi
3:56 PM63 °FSunny.7 mph22%30.08 "Hg10 mi
2:56 PM61 °FSunny.7 mph20%30.09 "Hg10 mi
1:56 PM59 °FSunny.5 mph23%30.11 "Hg10 mi
12:56 PM57 °FSunny.6 mph23%30.12 "Hg10 mi
11:56 AM54 °FSunny.9 mph27%30.13 "Hg10 mi
10:56 AM50 °FCool.3 mph32%30.13 "Hg10 mi
9:56 AM46 °FSunny.5 mph38%30.13 "Hg10 mi
8:56 AM44 °FSunny.8 mph43%30.13 "Hg10 mi
7:56 AM39 °FSunny.6 mph57%30.11 "Hg10 mi
6:56 AM32 °FClear.3 mph75%30.08 "Hg10 mi
5:56 AM30 °FClear.5 mph85%30.06 "Hg10 mi
4:56 AM32 °FClear.6 mph73%30.05 "Hg10 mi
3:56 AM32 °FClear.6 mph73%30.03 "Hg10 mi
2:56 AM34 °FClear.6 mph64%30.02 "Hg10 mi
1:56 AM35 °FClear.3 mph59%30.01 "Hg10 mi
12:56 AM38 °FClear.8 mph53%30.00 "Hg10 mi
11:56 PM
Sat, Apr 25
43 °FClear.8 mph45%29.98 "Hg10 mi
Weather by CustomWeather, © 2015

See weather overviewHow to use our weather pages